Regional Weather Roundup
Issued by NWS

Home | Current Version | Previous Version | Graphics & Text | Print | Product List | Glossary On
Versions: 1 2 3 4 5 6 7 8 9 10 11 12 13 14 15 16 17 18 19 20 21 22 23 24 25 26 27 28 29 30 31 32
000
ASUS45 KGTF 180210
RWRMT
MONTANA HOURLY WEATHER ROUNDUP
NATIONAL WEATHER SERVICE GREAT FALLS MT
800 PM MDT FRI APR 17 2015

NOTE: "FAIR" INDICATES FEW OR NO CLOUDS BELOW 12000 FEET WITH NO
SIGNIFICANT WEATHER AND/OR OBSTRUCTIONS TO VISIBILITY.

MTZ001>007-043-180300-
WEST OF THE DIVIDE

CITY           SKY/WX    TMP DP  RH WIND       PRES   REMARKS
KALISPELL      CLEAR     61  36  39 S7        29.97F
MISSOULA       CLEAR     65  26  23 NW7       30.00S
BUTTE          CLEAR     61  23  23 NW7       30.04S
DEER LODGE       N/A     57  25  28 NW8       30.06S
EUREKA           N/A     64  32  29 SW5       29.98S
HAMILTON         N/A     66  25  20 NW7       30.01S
LIBBY            N/A     64  30  27 CALM      30.01S
$$

MTZ008-052>055-180300-
SOUTHWEST MONTANA

CITY           SKY/WX    TMP DP  RH WIND       PRES   REMARKS
BOZEMAN        CLEAR     59  28  30 CALM      30.02F
DILLON         CLEAR     60  22  23 CALM      30.01F
$$

MTZ009-010-012-014-046-048-049-054-180300-
EAST SLOPES AND CENTRAL MONTANA

CITY           SKY/WX    TMP DP  RH WIND       PRES   REMARKS
CUT BANK       PTCLDY    59  27  29 W10       29.96S
GREAT FALLS    CLEAR     63  30  28 SE5       29.96S
MALMSTROM AFB  CLEAR     58  36  44 SE8       29.96S
HELENA         CLEAR     63  20  19 SE7       29.98S
$$

MTZ011-013-016-021-045-047-050-051-180300-
NORTH CENTRAL MONTANA

CITY           SKY/WX    TMP DP  RH WIND       PRES   REMARKS
HAVRE          CLEAR     60  33  36 S8        29.94F
LEWISTOWN      CLEAR     57  27  31 E10       30.00S
FORT BENTON      N/A     64  34  32 E6        29.95F
$$

MTZ017>020-022>042-056>058-061-062-180300-
EASTERN PLAINS

CITY           SKY/WX    TMP DP  RH WIND       PRES   REMARKS
BAKER          PTCLDY    51  33  50 S8        30.08F
BILLINGS       CLEAR     61  30  31 SE8       30.03F
GLASGOW        CLEAR     61  26  26 SE7       30.00F
JORDAN           N/A     61  24  24 VRB3      30.00F
LIVINGSTON     CLEAR     56  21  25 E5        30.02S
MILES CITY     PTCLDY    61  30  31 SE8       30.03F
SIDNEY         CLEAR     61  27  27 CALM      30.05S
WOLF POINT     CLEAR     59  30  33 E7        30.02S
BIG TIMBER       N/A     57  25  28 E5        30.03F
FORSYTH          N/A     61  34  36 SE3       30.02F
PLENTYWOOD       N/A     55  25  30 E12       30.05F
POPLAR           N/A     59  28  31 E7        30.03F
$$

REGIONAL REPORTS...DAKOTAS

CITY           SKY/WX    TMP DP  RH WIND       PRES   REMARKS
WILLISTON      CLEAR     60  25  26 NE8       30.06F
MINOT          CLEAR     50  24  36 N6        30.11R
DICKINSON      PTCLDY    57  20  23 SE6       30.06S
BEACH          FAIR      52  25  35 SE10      30.08S
CROSBY         FAIR      50  27  40 SE3       30.10R
WATFORD CITY   FAIR      59  27  29 E8        30.05S
BISMARCK       PTCLDY    62  30  29 NE6       30.07R
GRAND FORKS    CLEAR     52  25  35 N10       30.09R
FARGO          PTCLDY    63  22  20 N16       30.05R
BUFFALO SD       N/A     57  30  35 SE9       30.03S
RAPID CITY     LGT RAIN  49  43  80 SW9       30.12R
$$

REGIONAL REPORTS...WYOMING/IDAHO/WASHINGTON

CITY           SKY/WX    TMP DP  RH WIND       PRES   REMARKS
GILLETTE       MOCLDY    49  40  71 S13       30.09S
SHERIDAN       PTCLDY    56  31  38 SE3       30.06F
BUFFALO WY     PTCLDY    53  30  41 CALM      30.11S
CODY           CLEAR     55  27  33 CALM      30.07S
YELLOWSTONE LA   N/A     38  23  55 NW5       30.13S
IDAHO FALLS    CLEAR     61  25  25 SW9       30.00S
SALMON         CLEAR     63  21  20 CALM      29.97S
BOISE          CLEAR     68  27  21 W8        30.00F
SPOKANE        PTCLDY    65  35  33 W12       30.05F
$$

REGIONAL REPORTS...ALBERTA

CITY           SKY/WX    TMP DP  RH WIND       PRES   REMARKS
EDMONTON       CLEAR     45  41  87 N5        29.92S
CALGARY        PTCLDY    59  21  23 W12G28    29.92R
LETHBRIDGE     PTCLDY    63  28  27 W16G24    29.91R
MEDICINE HAT   PTCLDY    66  30  26 S9        29.85F
$$

REGIONAL REPORTS...SASKATCHEWAN

CITY           SKY/WX    TMP DP  RH WIND       PRES   REMARKS
SWIFT CURRENT  CLEAR     55  27  33 E16G24    29.94F
REGINA         CLEAR     54  27  35 E8        30.07F
SASKATOON      PTCLDY    55  23  28 SE16      29.98F
$$



USA.gov is the U.S. government's official web portal to all federal, state and local government web resources and services.